Regional Weather Roundup
Issued by NWS Raleigh/Durham, NC

Home | Current Version | Previous Version | Text Only | Print | Product List | Glossary On
Versions: 1 2 3 4 5 6 7 8 9 10 11 12 13 14 15 16 17 18 19 20 21 22 23 24 25 26 27
000
ASUS42 KRAH 222210
RWRRAH
NORTH CAROLINA WEATHER ROUNDUP
NATIONAL WEATHER SERVICE RALEIGH NC
500 PM EST THU FEB 22 2018

NOTE: "FAIR" INDICATES FEW OR NO CLOUDS BELOW 12,000 FEET WITH NO
SIGNIFICANT WEATHER AND/OR OBSTRUCTIONS TO VISIBILITY.

NCZ001-053-055-056-065-067-222300-
WESTERN NORTH CAROLINA

CITY           SKY/WX    TMP DP  RH WIND       PRES   REMARKS
ASHEVILLE      FAIR      72  59  63 S12G20    30.39R
JEFFERSON      FAIR      67  58  74 SE5       30.42R
MORGANTON      FAIR      76  61  60 S3        30.39R
HICKORY        FAIR      74  60  61 SW12      30.36R
RUTHERFORDTON  FAIR      75  61  60 S8        30.37S
MOUNT AIRY     FAIR      76  62  61 SW7       30.37R
BOONE          FAIR      68  56  66 S6        30.43R
$$

NCZ021-022-025-041-071-084-088-222300-
CENTRAL NORTH CAROLINA

CITY           SKY/WX    TMP DP  RH WIND       PRES   REMARKS
CHARLOTTE      PTSUNNY   77  62  59 SW13      30.36F
GREENSBORO     FAIR      74  62  66 SW14      30.35F
WINSTON-SALEM  FAIR      76  60  57 S12       30.36S
RALEIGH-DURHAM FAIR      77  62  59 S12       30.37S
FORT BRAGG     FAIR      77  60  54 SW8       30.38S
FAYETTEVILLE   FAIR      78  59  51 SW13      30.38F
BURLINGTON     FAIR      77  62  59 S8        30.36S
LAURINBURG     FAIR      77  62  59 S10       30.39F
$$

NCZ011-015-027-028-043-044-047-080-103-222300-
NORTHEASTERN NORTH CAROLINA

CITY           SKY/WX    TMP DP  RH WIND       PRES   REMARKS
ROCKY MT-WILSO FAIR      76  60  57 SW9       30.38S
GREENVILLE     FAIR      77  61  57 SW7       30.39S
WASHINGTON     FAIR      78  62  58 CALM      30.39S
ELIZABETH CITY FAIR      76  64  66 SW12      30.38S
MANTEO         FAIR      67  60  75 S10       30.40S
CAPE HATTERAS  FAIR      69  64  84 VRB6      30.43R
$$

NCZ078-087-090-091-093-098-101-222300-
SOUTHEASTERN NORTH CAROLINA

CITY           SKY/WX    TMP DP  RH WIND       PRES   REMARKS
LUMBERTON      FAIR      77  59  53 SW8       30.38F
GOLDSBORO      FAIR      78  61  55 SW9       30.37F
KINSTON        FAIR      79  63  57 W7        30.40S
KENANSVILLE    PTSUNNY   77  63  61 W6        30.39F
NEW BERN       FAIR      75  62  64 S13       30.41R
CHERRY POINT   NOT AVBL
BEAUFORT       FAIR      70  62  76 S10       30.42S
JACKSONVILLE   FAIR      75  62  64 S13       30.40R
WILMINGTON     FAIR      76  60  57 S12       30.41S
$$





USA.gov is the U.S. government's official web portal to all federal, state and local government web resources and services.